Regional Weather Roundup
Issued by NWS

Home | Current Version | Previous Version | Graphics & Text | Print | Product List | Glossary On
Versions: 1 2 3 4 5 6 7 8 9 10 11 12 13 14 15 16 17 18 19 20 21 22 23 24 25 26 27 28 29 30 31 32 33 34 35 36 37 38 39 40 41 42 43 44 45 46 47 48 49 50
000
ASUS45 KABQ 280801
RWRNM
WEATHER ROUNDUP FOR NEW MEXICO
NATIONAL WEATHER SERVICE ALBUQUERQUE NM
100 AM MST SAT FEB 28 2015

NOTE: "FAIR" MEANS FEW OR NO CLOUDS BELOW 12,000 FEET AGL WITH NO
       SIGNIFICANT WEATHER OR OBSTRUCTIONS TO VISION.

      THIS PRODUCT IS RELEASED AS TWO VERSIONS.  ONE VERSION NEAR
      THE TOP OF THE HOUR CONTAINING PRELIMINARY DATA FROM ALBUQUERQUE
      AND OTHER STATIONS.  A FINAL VERSION WITH ADDITIONAL DATA IS
      ISSUED ABOUT 10 MINUTES AFTER THE HOUR.

NMZ501-503-504-510>518-280900-
NORTHWEST PLATEAU/NORTHCENTRAL MOUNTAINS

CITY           SKY/WX    TMP DP  RH WIND       PRES   REMARKS
FARMINGTON     LGT SNOW  29  27  92 SE8       29.79S FOG     WCI  21
SANTA FE       LGT SNOW  16  11  80 SE14      29.87F VSB 3/4 WCI   2
TAOS           CLOUDY    18  12  79 NW3       29.83F VSB 1/2
ANGEL FIRE     LGT SNOW  21  19  92 S3        29.78F

$$
NMZ402-403-502-505>509-280900-
WESTCENTRAL MOUNTAINS/SOUTHWEST MOUNTAINS

CITY           SKY/WX    TMP DP  RH WIND       PRES   REMARKS
GALLUP         MOCLDY    30  26  85 NE7       29.74F WCI  23
SILVER CITY    CLEAR     28  23  80 NW3       29.89S

$$
NMZ407-409-411-412-280900-
SOUTHERN DESERTS

CITY           SKY/WX    TMP DP  RH WIND       PRES   REMARKS
DEMING         CLEAR     31  22  69 MISG      29.89S
HOLLOMAN AFB   PTCLDY    27  19  72 SW6       29.95S WCI  20
ALAMOGORDO     PTCLDY    25  21  86 N7        29.96F WCI  17
T OR C         PTCLDY    32  27  81 N5        29.87S WCI  27

$$
NMZ519>523-280900-
CENTRAL VALLEYS/CENTRAL HIGHLANDS

CITY           SKY/WX    TMP DP  RH WIND       PRES   REMARKS
ALBUQUERQUE    LGT SNOW  20  18  92 N9        29.90R FOG     WCI   9
DOUBLE EAGLE   FLURRIES  19  16  89 NE8       29.88S WCI   8
MORIARTY ARPT  LGT SNOW  16  13  89 S8        29.92F WCI   5
CLINES CORNERS FOG       11   8  88 SE12      29.84F VSB 1/4 WCI  -3
BELEN          CLOUDY    25  24  98 NE3       29.90R
SOCORRO          N/A     30  26  84 S5        29.90S WCI  25

$$
NMZ524>526-539-540-280900-
SOUTHCENTRAL MOUNTAINS

CITY           SKY/WX    TMP DP  RH WIND       PRES   REMARKS
RUIDOSO        NOT AVBL

$$
NMZ527>531-280900-
NORTHEAST HIGHLANDS/NORTHEAST PLAINS

CITY           SKY/WX    TMP DP  RH WIND       PRES   REMARKS
LAS VEGAS      LGT SNOW   9   5  84 S16       29.88S FOG     WCI  -8
RATON          LGT SNOW   8   5  87 SW5       29.90F FOG     WCI   0
CLAYTON        LGT SNOW  11   8  88 S21       30.00F FOG     WCI  -8

$$
NMZ532>537-280900-
EASTCENTRAL PLAINS

CITY           SKY/WX    TMP DP  RH WIND       PRES   REMARKS
TUCUMCARI      CLOUDY    15  11  83 S13       30.10F WCI   1
CANNON AFB     LGT SNOW  12   9  85 SE10      30.11S FOG     WCI  -1
CLOVIS AIRPORT CLOUDY    10   9  92 SE8       30.12S WCI  -1

$$
NMZ028-029-538-280900-
SOUTHEAST PLAINS

CITY           SKY/WX    TMP DP  RH WIND       PRES   REMARKS
ROSWELL        CLOUDY    21  19  92 SE12      30.11F WCI   9
ARTESIA        CLOUDY    21  21 100 SE13      30.14F WCI   9
CARLSBAD       CLOUDY    22  20  92 E10       30.14F FOG     WCI  11
HOBBS          CLOUDY    16  16 100 E7        30.16S FOG     WCI   6


$$


USA.gov is the U.S. government's official web portal to all federal, state and local government web resources and services.